Montpelier, VT

7:27 AM EDT on July 25, 2017 (GMT -0400)
Knapp State

Weather History for KMPV - October, 2014

Change the Weather History Date:

Friday, October 3, 2014

  Actual Average Record
Temperature  
Mean Temperature 57 °F 50 °F  
Max Temperature 69 °F 61 °F 82 °F (1967)
Min Temperature 45 °F 39 °F 28 °F (1955)
Degree Days  
Heating Degree Days 8 15  
Month to date heating degree days 20 43  
Since 1 July heating degree days 404 398  
Cooling Degree Days 0 0  
Month to date cooling degree days 0 0  
Year to date cooling degree days 186 263  
Growing Degree Days 7 (Base 50)    
Moisture  
Dew Point 47 °F    
Average Humidity 69    
Maximum Humidity 100    
Minimum Humidity 37    
Precipitation  
Precipitation 0.00 in 0.12 in 0.84 in (1973)
Month to date precipitation 0.00 0.35  
Year to date precipitation 26.64 28.27  
Sea Level Pressure  
Sea Level Pressure 30.06 in    
Wind  
Wind Speed 8 mph (SSE)    
Max Wind Speed 20 mph    
Max Gust Speed 24 mph    
Visibility 10 miles    
Events      
T = Trace of Precipitation, MM = Missing Value Source: NWS Daily Summary

Daily Weather History Graph

Daily Weather History Graph

Search for Another Location

Airport or City:

Trip Planner

Search our weather history database for the weather conditions in past years. The results will help you decide how hot, cold, wet, or windy it might be!

Date:

Astronomy

Oct. 03, 2014 Rise Set
Actual Time 6:50 AM EDT 6:27 PM EDT
Civil Twilight 6:21 AM EDT 6:56 PM EDT
Nautical Twilight 5:47 AM EDT 7:29 PM EDT
Astronomical Twilight 5:13 AM EDT 8:03 PM EDT
Moon 3:28 PM EDT (10/3) 12:56 AM EDT (10/3)
Length of Visible Light 12h 34m
Length of Day
11h 37m
Waxing Gibbous, 71% of the Moon is Illuminated
Oct 3
Waxing Gibbous
Oct 8
Full
Oct 15
Last Quarter
Oct 23
New
Oct 30
First Quarter

Hourly Weather History & Observations

Time (EDT) Temp. Windchill Dew Point Humidity Pressure Visibility Wind Dir Wind Speed Gust Speed Precip Events Conditions
12:51 AM 50.0 °F - 48.0 °F 93% 30.17 in 10.0 mi Calm Calm - N/A   Clear
1:51 AM 51.1 °F - 50.0 °F 96% 30.17 in 10.0 mi Calm Calm - N/A   Mostly Cloudy
2:01 AM 53.1 °F - 51.1 °F 93% 30.16 in 10.0 mi Calm Calm - N/A   Mostly Cloudy
2:51 AM 54.0 °F - 52.0 °F 93% 30.15 in 10.0 mi SE 4.6 mph - N/A   Mostly Cloudy
3:02 AM 53.1 °F - 51.1 °F 93% 30.15 in 10.0 mi SE 5.8 mph - N/A   Scattered Clouds
3:51 AM 52.0 °F - 50.0 °F 93% 30.16 in 10.0 mi SSE 4.6 mph - N/A   Clear
4:51 AM 46.0 °F 44.8 °F 45.0 °F 96% 30.17 in 10.0 mi SSE 3.5 mph - N/A   Clear
5:51 AM 46.9 °F - 46.0 °F 97% 30.17 in 9.0 mi SSE 3.5 mph - N/A   Clear
6:51 AM 46.9 °F - 46.0 °F 97% 30.18 in 9.0 mi Calm Calm - N/A   Clear
7:51 AM 48.9 °F - 48.0 °F 97% 30.16 in 10.0 mi Calm Calm - N/A   Clear
8:51 AM 54.0 °F - 46.9 °F 77% 30.14 in 10.0 mi SSE 5.8 mph - N/A   Clear
9:51 AM 57.9 °F - 46.0 °F 65% 30.13 in 10.0 mi SSE 6.9 mph - N/A   Clear
10:51 AM 60.1 °F - 46.0 °F 60% 30.11 in 10.0 mi South 11.5 mph - N/A   Clear
11:51 AM 63.0 °F - 46.9 °F 56% 30.08 in 10.0 mi South 6.9 mph - N/A   Clear
12:51 PM 66.0 °F - 46.0 °F 48% 30.04 in 10.0 mi SSE 6.9 mph - N/A   Clear
1:51 PM 68.0 °F - 43.0 °F 40% 30.01 in 10.0 mi South 9.2 mph - N/A   Clear
2:51 PM 68.0 °F - 41.0 °F 37% 29.98 in 10.0 mi South 10.4 mph - N/A   Clear
3:51 PM 68.0 °F - 42.1 °F 39% 29.97 in 10.0 mi South 16.1 mph - N/A   Clear
4:51 PM 66.9 °F - 42.1 °F 40% 29.96 in 10.0 mi SSE 17.3 mph - N/A   Clear
5:51 PM 63.0 °F - 45.0 °F 52% 29.96 in 10.0 mi SSE 10.4 mph - N/A   Clear
6:51 PM 59.0 °F - 45.0 °F 60% 29.96 in 10.0 mi South 9.2 mph - N/A   Clear
7:51 PM 57.0 °F - 45.0 °F 64% 29.95 in 10.0 mi SSE 11.5 mph - N/A   Clear
8:51 PM 55.9 °F - 46.0 °F 69% 29.94 in 10.0 mi South 10.4 mph - N/A   Clear
9:51 PM 54.0 °F - 46.9 °F 77% 29.94 in 10.0 mi South 8.1 mph - N/A   Clear
10:51 PM 53.6 °F - 48.2 °F 82% 29.91 in 10.0 mi South 9.2 mph - N/A   Clear
11:51 PM 52.0 °F - 48.0 °F 86% 29.90 in 10.0 mi SSW 5.8 mph - N/A   Mostly Cloudy